Back to catalog

ARIANE 5 R/B

AliveGTO
NORAD 43634·ROCKET BODY·🇫🇷 France

Launched Sep 25, 2018 from Guiana Space Centre

Loading…

TLE

AgingSource: Space-Track

Epoch: Sep 14, 2026, 09:04 UTC

1 43634U 18074C   26257.37798711  .00003251  00000-0  91682-3 0  9995
2 43634   6.3210 359.1706 7127077 135.7035 310.7756  2.47484801 68540

Track ARIANE 5 R/B in real time with AllMySat

Download on the App Store